Airport Information

KONO - Ontario Municipal Airport

KONO 191853Z AUTO 30017G26KT 10SM CLR 26/M05 A2999 RMK AO2 PK WND 30026/1849 SLP141 T02611050


  • General Information

  • Coordinates: N 44°1'9"/ W 117°0'46"
  • Location: N/A
  • Surveyed Elevation: 2193 MSL

Operations

Flow Name Active Runways Conditions

Green background denotes normal operations.


Common Frequencies

Callsign Frequency Position Name

More at the Document Center


Charts